Latest Weather Observations for Esperance Airport

IDW60801

Issued at 12:32 am WST Tuesday 5 May 2026 (issued every 10 minutes, with the page automatically refreshed every 10 minutes)

About weather observations | Map of weather stations | Latest weather observations for WA | Other Formats
Station Details ID: 009542 Name: ESPERANCE AERO Lat: -33.68 Lon: 121.83 Height: 142.0 m
Data from the previous 72 hours. | See also: Recent months at Esperance Airport
Date/Time
WST
Temp
°C
App
Temp
°C
Dew
Point
°C
Rel
Hum
%
Delta-T
°C
Wind Press
QNH
hPa
Press
MSL
hPa
Rain since
9am
mm
Dir  Spd
km/h
Gust
km/h
Spd
kts
Gust
kts
05/12:30am 12.7 11.8 11.4 92 0.7 SE 7 9 4 5 1028.0 1027.9 0.0
05/12:00am 12.6 11.7 11.5 93 0.6 SE 7 9 4 5 1028.0 1027.9 0.0
 
Date/Time
WST
Temp
°C
App
Temp
°C
Dew
Point
°C
Rel
Hum
%
Delta-T
°C
Wind Press
QNH
hPa
Press
MSL
hPa
Rain since
9am
mm
Dir  Spd
km/h
Gust
km/h
Spd
kts
Gust
kts
04/11:30pm 12.3 11.6 11.5 95 0.4 SE 6 9 3 5 1028.1 1028.0 0.0
04/11:00pm 12.6 11.4 11.7 94 0.5 SE 9 11 5 6 1028.1 1028.0 0.0
04/10:30pm 13.1 10.8 11.8 92 0.7 SSE 15 19 8 10 1028.4 1028.3 0.0
04/10:00pm 13.5 12.3 11.7 89 1.0 SSW 9 11 5 6 1028.7 1028.6 0.0
04/09:30pm 13.4 12.6 11.6 89 1.0 SSW 7 9 4 5 1028.7 1028.6 0.0
04/09:00pm 13.6 13.0 12.2 91 0.8 SSW 7 9 4 5 1028.7 1028.6 0.0
04/08:30pm 13.8 13.2 12.2 90 0.9 SSW 7 9 4 5 1028.9 1028.8 0.0
04/08:19pm 13.9 13.2 12.1 89 1.0 SSW 7 9 4 5 1028.8 1028.7 0.0
04/08:04pm 14.1 13.0 12.1 88 1.1 SSW 9 13 5 7 1028.8 1028.7 0.0
04/08:00pm 14.2 13.1 12.1 87 1.1 SSW 9 13 5 7 1028.9 1028.8 0.0
04/07:30pm 14.6 13.3 11.2 80 1.8 SSW 9 11 5 6 1028.9 1028.8 0.0
04/07:00pm 14.8 13.8 11.0 78 2.0 SSW 7 9 4 5 1028.7 1028.6 0.0
04/06:30pm 14.9 14.7 11.7 81 1.7 SSW 4 6 2 3 1028.4 1028.3 0.0
04/06:00pm 14.9 13.8 10.7 76 2.2 SSW 7 9 4 5 1028.2 1028.1 0.0
04/05:30pm 15.1 13.5 10.1 72 2.6 SSW 9 11 5 6 1027.9 1027.8 0.0
04/05:00pm 15.5 12.6 9.8 69 3.0 SSW 15 19 8 10 1027.7 1027.6 0.0
04/04:30pm 16.0 13.4 10.7 71 2.8 SSW 15 19 8 10 1027.6 1027.5 0.0
04/04:00pm 16.1 14.0 9.8 66 3.3 SSW 11 15 6 8 1027.4 1027.3 0.0
04/03:30pm 16.3 13.0 9.5 64 3.6 S 17 20 9 11 1027.5 1027.4 0.0
04/03:00pm 16.5 13.4 10.4 67 3.2 SSW 17 20 9 11 1027.3 1027.2 0.0
04/02:30pm 16.5 12.9 9.9 65 3.5 S 19 28 10 15 1027.0 1026.9 0.0
04/02:00pm 17.0 13.4 10.4 65 3.5 SSW 20 28 11 15 1026.9 1026.8 0.0
04/01:30pm 17.0 14.1 11.1 68 3.2 SSW 17 22 9 12 1026.9 1026.8 0.0
04/01:00pm 17.9 16.6 11.2 65 3.6 SSW 9 17 5 9 1027.0 1026.9 0.0
04/12:30pm 16.9 14.3 10.7 67 3.3 SW 15 20 8 11 1027.2 1027.1 0.0
04/12:00pm 16.8 14.4 10.0 64 3.6 SW 13 17 7 9 1027.6 1027.5 0.0
04/11:30am 16.7 13.9 11.4 71 2.9 S 17 20 9 11 1027.8 1027.7 0.0
04/11:00am 16.4 13.7 11.6 73 2.6 S 17 20 9 11 1028.1 1028.0 0.0
04/10:30am 16.3 15.4 12.5 78 2.1 S 9 13 5 7 1028.3 1028.2 0.0
04/10:00am 15.4 14.4 12.2 81 1.7 S 9 13 5 7 1028.4 1028.3 0.0
04/09:30am 15.0 14.4 12.3 84 1.5 SSW 7 11 4 6 1028.5 1028.4 0.0
04/09:00am 14.7 14.7 12.4 86 1.3 SSW 4 9 2 5 1028.5 1028.4 1.4
04/08:30am 14.1 13.6 12.7 91 0.8 SW 7 11 4 6 1028.4 1028.3 1.4
04/08:00am 13.4 12.5 12.5 94 0.5 S 9 11 5 6 1028.1 1028.0 1.4
04/07:30am 13.0 11.6 12.1 94 0.5 S 11 15 6 8 1027.7 1027.6 1.4
04/07:20am 13.2 12.2 12.3 94 0.5 S 9 11 5 6 1027.7 1027.6 1.4
04/07:00am 13.3 12.0 12.4 94 0.5 S 11 15 6 8 1027.7 1027.6 1.2
04/06:57am 13.4 12.4 12.3 93 0.6 SSW 9 15 5 8 1027.6 1027.5 1.0
04/06:30am 13.4 12.3 12.0 91 0.8 SSW 9 9 5 5 1027.4 1027.3 1.0
04/06:00am 13.6 12.0 11.5 87 1.1 SSW 11 13 6 7 1027.2 1027.1 1.0
04/05:30am 13.9 12.5 10.9 82 1.6 SSW 9 13 5 7 1027.1 1027.0 1.0
04/05:00am 13.5 12.1 10.9 84 1.4 SSW 9 13 5 7 1027.1 1027.0 1.0
04/04:30am 13.3 12.0 11.2 87 1.1 SSW 9 13 5 7 1026.9 1026.8 1.0
04/04:00am 13.5 11.9 11.4 87 1.1 SSW 11 13 6 7 1026.7 1026.6 1.0
04/03:30am 13.4 12.2 11.6 89 1.0 SSW 9 13 5 7 1026.3 1026.1 1.0
04/03:00am 13.4 11.8 11.6 89 1.0 SSW 11 15 6 8 1026.2 1026.0 1.0
04/02:30am 13.4 11.9 11.8 90 0.9 SSW 11 13 6 7 1026.2 1026.0 1.0
04/02:00am 13.3 12.6 11.9 91 0.8 SW 7 9 4 5 1026.3 1026.1 1.0
04/01:30am 13.3 11.8 11.9 91 0.8 SW 11 13 6 7 1026.3 1026.1 1.0
04/01:00am 13.4 12.0 12.1 92 0.7 SW 11 15 6 8 1026.1 1025.9 1.0
04/12:30am 13.1 12.3 11.8 92 0.7 SSW 7 13 4 7 1026.1 1025.9 1.0
04/12:00am 13.2 11.8 12.1 93 0.6 SW 11 15 6 8 1026.1 1025.9 1.0
 
Date/Time
WST
Temp
°C
App
Temp
°C
Dew
Point
°C
Rel
Hum
%
Delta-T
°C
Wind Press
QNH
hPa
Press
MSL
hPa
Rain since
9am
mm
Dir  Spd
km/h
Gust
km/h
Spd
kts
Gust
kts
03/11:30pm 13.1 11.7 12.3 95 0.4 SW 11 13 6 7 1026.1 1025.9 1.0
03/11:00pm 13.3 12.8 12.5 95 0.4 S 7 11 4 6 1026.1 1025.9 1.0
03/10:51pm 13.3 12.4 12.5 95 0.4 S 9 17 5 9 1026.1 1025.9 1.0
03/10:40pm 13.3 11.6 12.5 95 0.4 SSW 13 19 7 10 1026.3 1026.1 1.0
03/10:30pm 13.0 12.0 12.2 95 0.4 SW 9 11 5 6 1026.2 1026.0 0.8
03/10:00pm 13.3 12.4 12.5 95 0.4 SSW 9 13 5 7 1026.3 1026.1 0.8
03/09:56pm 13.3 12.4 12.5 95 0.4 SSW 9 13 5 7 1026.3 1026.1 0.8
03/09:40pm 13.3 11.6 12.5 95 0.4 SSW 13 17 7 9 1026.4 1026.3 0.8
03/09:30pm 13.3 11.2 12.5 95 0.4 SSW 15 17 8 9 1026.3 1026.1 0.4
03/09:10pm 13.6 11.7 13.0 96 0.3 SW 15 22 8 12 1026.4 1026.3 0.2
03/09:00pm 13.5 11.9 12.9 96 0.3 SW 13 17 7 9 1026.3 1026.1 0.2
03/08:30pm 13.4 11.8 12.8 96 0.3 SSW 13 15 7 8 1026.1 1025.9 0.2
03/08:26pm 13.3 11.6 12.5 95 0.4 SSW 13 17 7 9 1026.1 1025.9 0.2
03/08:09pm 13.4 12.1 12.6 95 0.4 SSW 11 17 6 9 1026.1 1025.9 0.2
03/08:08pm 13.4 12.1 12.6 95 0.4 SSW 11 13 6 7 1026.1 1025.9 0.2
03/08:00pm 13.2 11.8 12.3 94 0.5 SSW 11 15 6 8 1026.1 1025.9 0.0
03/07:30pm 13.2 11.0 12.1 93 0.6 SW 15 20 8 11 1025.9 1025.7 0.0
03/07:00pm 13.5 11.3 12.2 92 0.7 SW 15 17 8 9 1025.8 1025.6 0.0
03/06:30pm 13.7 12.3 12.3 91 0.8 SSW 11 13 6 7 1025.6 1025.4 0.0
03/06:00pm 13.9 12.0 11.9 88 1.1 SW 13 15 7 8 1025.3 1025.1 0.0
03/05:30pm 14.2 11.9 11.7 85 1.3 SW 15 19 8 10 1025.1 1024.9 0.0
03/05:00pm 14.9 11.3 12.0 83 1.6 SW 22 28 12 15 1024.9 1024.7 0.0
03/04:30pm 15.5 12.2 11.7 78 2.1 SW 20 30 11 16 1024.8 1024.6 0.0
03/04:00pm 16.2 12.5 11.4 73 2.6 SW 22 28 12 15 1024.7 1024.5 0.0
03/03:30pm 16.4 12.1 10.9 70 3.0 SW 24 32 13 17 1024.5 1024.3 0.0
03/03:00pm 16.6 12.5 11.3 71 2.9 SSW 24 33 13 18 1024.5 1024.3 0.0
03/02:30pm 16.8 12.4 10.4 66 3.4 SW 24 32 13 17 1024.3 1024.1 0.0
03/02:00pm 16.3 12.0 10.6 69 3.0 SW 24 32 13 17 1024.2 1024.0 0.0
03/01:30pm 16.6 12.2 10.5 67 3.3 SW 24 33 13 18 1024.0 1023.8 0.0
03/01:00pm 17.0 13.0 10.6 66 3.4 SSW 22 30 12 16 1024.1 1023.9 0.0
03/12:30pm 16.7 12.2 11.4 71 2.9 SW 26 35 14 19 1024.3 1024.1 0.0
03/12:00pm 17.2 13.6 13.1 77 2.3 SSW 24 32 13 17 1024.6 1024.4 0.0
03/11:30am 15.6 12.2 12.5 82 1.7 SSW 22 28 12 15 1024.9 1024.7 0.0
03/11:00am 16.4 13.2 11.8 74 2.5 SSW 20 28 11 15 1024.9 1024.7 0.0
03/10:30am 16.0 12.4 10.5 70 2.9 SSW 20 30 11 16 1024.9 1024.7 0.0
03/10:00am 16.6 12.5 10.2 66 3.4 S 22 30 12 16 1024.8 1024.6 0.0
03/09:30am 15.8 12.5 10.8 72 2.7 S 19 24 10 13 1024.8 1024.6 0.0
03/09:00am 15.5 12.7 11.3 76 2.3 SSW 17 20 9 11 1024.6 1024.4 5.6
03/08:30am 13.8 12.4 12.2 90 0.9 SSW 11 13 6 7 1024.5 1024.3 5.6
03/08:00am 13.5 11.8 12.4 93 0.6 SW 13 19 7 10 1024.1 1023.9 5.6
03/07:30am 12.3 10.3 11.4 94 0.5 SW 13 17 7 9 1023.6 1023.5 5.6
03/07:00am 12.3 9.5 11.4 94 0.5 SW 17 22 9 12 1023.2 1023.1 5.6
03/06:30am 11.8 10.0 11.0 95 0.4 SW 11 17 6 9 1022.8 1022.7 5.4
03/06:00am 11.5 9.6 10.6 94 0.5 SW 11 17 6 9 1022.5 1022.4 5.2
03/05:30am 11.1 9.5 10.2 94 0.5 SW 9 11 5 6 1022.3 1022.2 5.2
03/05:00am 12.0 10.3 11.2 95 0.4 SW 11 13 6 7 1022.0 1021.9 5.2
03/04:30am 12.1 9.7 11.3 95 0.4 SW 15 17 8 9 1021.7 1021.6 5.2
03/04:00am 11.6 10.2 11.0 96 0.3 SW 9 11 5 6 1021.5 1021.4 5.0
03/03:30am 12.1 9.7 11.5 96 0.3 SW 15 17 8 9 1021.3 1021.2 5.0
03/03:00am 12.0 10.0 11.5 97 0.3 SW 13 19 7 10 1021.3 1021.2 5.0
03/02:30am 12.5 10.7 12.0 97 0.3 SW 13 19 7 10 1021.2 1021.1 5.0
03/02:15am 12.4 10.9 11.9 97 0.3 SW 11 15 6 8 1021.2 1021.1 4.2
03/02:08am 12.4 10.5 11.9 97 0.3 SW 13 17 7 9 1021.3 1021.2 4.2
03/02:00am 12.5 10.7 12.0 97 0.3 WSW 13 17 7 9 1021.2 1021.1 4.2
03/01:44am 12.4 11.3 11.9 97 0.3 W 9 11 5 6 1021.4 1021.3 4.0
03/01:30am 12.3 10.4 11.8 97 0.3 W 13 17 7 9 1021.2 1021.1 3.8
03/01:23am 12.4 10.5 11.9 97 0.3 W 13 15 7 8 1021.3 1021.2 3.8
03/01:00am 12.1 10.5 11.6 97 0.3 W 11 15 6 8 1021.2 1021.1 3.6
03/12:30am 12.2 9.9 11.7 97 0.3 W 15 19 8 10 1021.2 1021.1 3.0
03/12:03am 12.2 9.9 11.7 97 0.3 WNW 15 20 8 11 1021.0 1020.9 2.8
03/12:00am 12.2 9.9 11.7 97 0.3 W 15 19 8 10 1021.1 1021.0 2.8
 
Date/Time
WST
Temp
°C
App
Temp
°C
Dew
Point
°C
Rel
Hum
%
Delta-T
°C
Wind Press
QNH
hPa
Press
MSL
hPa
Rain since
9am
mm
Dir  Spd
km/h
Gust
km/h
Spd
kts
Gust
kts
02/11:45pm 12.4 10.1 11.9 97 0.3 W 15 19 8 10 1021.1 1021.0 2.8
02/11:30pm 12.3 9.6 11.8 97 0.3 W 17 22 9 12 1021.2 1021.1 2.8
02/11:01pm 12.1 9.4 11.6 97 0.3 W 17 20 9 11 1021.3 1021.2 2.8
02/11:00pm 12.1 9.4 11.6 97 0.3 W 17 20 9 11 1021.3 1021.2 2.8
02/10:44pm 12.3 9.3 11.8 97 0.3 W 19 24 10 13 1021.5 1021.4 2.8
02/10:30pm 12.3 9.6 11.8 97 0.3 W 17 20 9 11 1021.5 1021.4 2.4
02/10:28pm 12.4 9.8 11.9 97 0.3 W 17 24 9 13 1021.5 1021.4 2.4
02/10:16pm 12.4 9.8 11.9 97 0.3 W 17 28 9 15 1021.6 1021.5 2.4
02/10:10pm 12.4 9.4 11.9 97 0.3 W 19 28 10 15 1021.6 1021.5 2.4
02/10:00pm 12.2 9.5 11.7 97 0.3 W 17 20 9 11 1021.5 1021.4 2.0
02/09:30pm 12.0 10.0 11.5 97 0.3 W 13 17 7 9 1021.5 1021.4 2.0
02/09:28pm 12.0 9.6 11.5 97 0.3 W 15 17 8 9 1021.5 1021.4 2.0
02/09:02pm 12.2 9.1 11.7 97 0.3 W 19 24 10 13 1021.5 1021.4 2.0
02/09:00pm 12.1 9.4 11.6 97 0.3 W 17 22 9 12 1021.6 1021.5 2.0
02/08:30pm 12.1 9.4 11.6 97 0.3 WNW 17 22 9 12 1021.5 1021.4 1.8
02/08:04pm 11.9 9.1 11.3 96 0.3 W 17 19 9 10 1021.5 1021.4 1.8
02/08:00pm 12.0 9.2 11.4 96 0.3 W 17 20 9 11 1021.5 1021.4 1.8
02/07:30pm 11.8 8.6 11.2 96 0.3 WNW 19 24 10 13 1021.5 1021.4 1.8
02/07:08pm 11.9 9.1 11.3 96 0.3 WNW 17 20 9 11 1021.4 1021.3 1.8
02/07:00pm 12.0 9.2 11.4 96 0.3 W 17 22 9 12 1021.5 1021.4 1.8
02/06:37pm 12.1 9.3 11.5 96 0.3 W 17 20 9 11 1021.5 1021.4 1.6
02/06:30pm 12.1 9.3 11.5 96 0.3 W 17 20 9 11 1021.6 1021.5 1.6
02/06:12pm 12.2 8.5 11.4 95 0.4 W 22 26 12 14 1021.5 1021.4 1.2
02/06:00pm 12.1 9.3 11.2 94 0.5 W 17 22 9 12 1021.3 1021.2 1.2
02/05:30pm 12.1 10.0 11.2 94 0.5 WSW 13 17 7 9 1021.0 1020.9 1.2
02/05:03pm 12.3 9.1 11.2 93 0.6 WSW 19 22 10 12 1021.1 1021.0 1.2
02/05:00pm 12.4 9.0 11.3 93 0.6 WSW 20 28 11 15 1021.1 1021.0 1.0
02/04:43pm 12.8 9.4 11.2 90 0.8 WSW 20 24 11 13 1021.1 1021.0 0.8
02/04:30pm 13.0 10.0 10.5 85 1.3 WSW 17 24 9 13 1020.9 1020.8 0.4
02/04:00pm 13.1 9.6 10.3 83 1.5 SW 19 24 10 13 1020.9 1020.8 0.4
02/03:30pm 13.2 7.8 9.6 79 1.9 SW 28 41 15 22 1021.0 1020.9 0.4
02/03:00pm 14.5 9.4 9.1 70 2.8 SW 26 33 14 18 1020.8 1020.7 0.4
02/02:30pm 14.0 9.5 10.2 78 2.0 SSW 24 32 13 17 1020.6 1020.5 0.4
02/02:00pm 12.7 8.2 10.2 85 1.3 SSW 24 37 13 20 1020.7 1020.6 0.4
02/01:40pm 12.9 7.6 9.7 81 1.6 SSW 28 48 15 26 1020.5 1020.4 0.0
02/01:30pm 14.3 10.0 9.3 72 2.6 S 22 32 12 17 1020.3 1020.1 0.0
02/01:02pm 13.0 6.6 9.4 79 1.8 SSW 33 52 18 28 1020.6 1020.5 0.0
02/01:00pm 13.0 6.3 9.6 80 1.7 SSW 35 52 19 28 1020.7 1020.6 0.0
02/12:30pm 15.1 8.0 8.1 63 3.5 SSW 35 46 19 25 1020.6 1020.5 0.0
02/12:02pm 13.5 6.9 9.9 79 1.9 SSW 35 54 19 29 1021.0 1020.9 0.0
02/12:00pm 13.3 6.2 9.7 79 1.9 SSW 37 54 20 29 1021.0 1020.9 0.0
02/11:31am 13.8 7.6 9.5 75 2.2 SW 32 50 17 27 1021.3 1021.2 0.0
02/11:30am 13.6 7.2 9.3 75 2.2 SW 33 50 18 27 1021.3 1021.2 0.0
02/11:00am 14.8 7.5 7.1 60 3.8 SSW 35 43 19 23 1021.3 1021.2 0.0
02/10:35am 14.8 7.6 7.6 62 3.6 SSW 35 54 19 29 1021.2 1021.1 0.0
02/10:30am 15.8 8.7 8.1 60 3.9 SSW 35 50 19 27 1021.1 1021.0 0.0
02/10:00am 14.5 7.7 6.8 60 3.8 SSW 32 46 17 25 1021.2 1021.1 0.0
02/09:30am 14.6 7.1 6.2 57 4.1 SSW 35 44 19 24 1021.0 1020.9 0.0
02/09:00am 13.2 8.1 7.6 69 2.8 SSW 24 32 13 17 1021.1 1021.0 7.0
02/08:52am 12.7 6.6 8.4 75 2.2 SSW 30 48 16 26 1021.1 1021.0 7.0
02/08:30am 13.9 7.3 7.7 66 3.1 SSW 32 41 17 22 1020.9 1020.8 7.0
02/08:00am 13.1 8.7 7.3 68 2.8 SW 20 26 11 14 1020.5 1020.4 7.0
02/07:30am 11.6 7.2 9.0 84 1.3 SSW 22 26 12 14 1020.4 1020.3 7.0
02/07:00am 11.2 7.7 8.8 85 1.2 SSW 17 26 9 14 1020.1 1019.9 7.0
02/06:30am 11.5 7.3 8.2 80 1.6 SW 20 28 11 15 1019.7 1019.5 6.8
02/06:00am 11.5 7.3 8.2 80 1.6 SSW 20 35 11 19 1019.5 1019.3 6.8
02/05:30am 10.9 7.4 8.7 86 1.1 WSW 17 24 9 13 1019.3 1019.1 6.8
02/05:00am 10.3 7.4 8.2 87 1.0 WSW 13 17 7 9 1019.2 1019.0 6.8
02/04:30am 10.8 8.2 7.9 82 1.4 SW 11 17 6 9 1019.0 1018.8 6.8
02/04:00am 10.1 7.4 7.5 84 1.2 SW 11 15 6 8 1018.8 1018.6 6.6
02/03:30am 10.4 7.8 7.6 83 1.4 SSW 11 17 6 9 1018.8 1018.6 6.6
02/03:00am 10.8 7.0 7.5 80 1.6 SW 17 20 9 11 1018.9 1018.7 6.6
02/02:30am 11.0 7.4 6.6 74 2.1 SW 15 19 8 10 1018.9 1018.7 6.4
02/02:00am 10.9 6.9 6.6 75 2.0 SW 17 20 9 11 1019.0 1018.8 6.4
02/01:30am 10.7 6.8 5.5 70 2.4 SSW 15 19 8 10 1018.9 1018.7 6.4
02/01:00am 11.3 6.4 5.2 66 2.8 SSW 20 30 11 16 1018.9 1018.7 6.4

Other formats

Comma delimited format used in spreadsheet applications
http://www.bom.gov.au/fwo/IDW60801/IDW60801.95638.axf

JavaScript Object Notation format (JSON) in row-major order
http://www.bom.gov.au/fwo/IDW60801/IDW60801.95638.json

Data quality

Most of these data are generated automatically and are frequently updated. Quality checks on data are not normally performed. It is possible for incorrect values to appear. Refer to information at About Latest Weather Observations and please check the disclaimer before using these data.